Hutchinson, KS

12:28 AM CDT on June 26, 2017 (GMT -0500)
Hutchinson Municipal

Weather History for KHUT - October, 2012

Change the Weather History Date:

Monday, October 1, 2012

  Actual Average Record
Temperature  
Mean Temperature 58 °F -  
Max Temperature 73 °F 73 °F 97 °F (2006)
Min Temperature 44 °F 47 °F 32 °F (2003)
Degree Days  
Heating Degree Days 6    
Growing Degree Days 8 (Base 50)    
Moisture  
Dew Point 47 °F    
Average Humidity 67    
Maximum Humidity 86    
Minimum Humidity 41    
Precipitation  
Precipitation 0.00 in - - ()
Sea Level Pressure  
Sea Level Pressure 29.94 in    
Wind  
Wind Speed 8 mph (NNW)    
Max Wind Speed 23 mph    
Max Gust Speed 34 mph    
Visibility 10 miles    
Events      
Averages and records for this station are not official NWS values.
T = Trace of Precipitation, MM = Missing Value Source: NWS Daily Summary

Daily Weather History Graph

Daily Weather History Graph

Search for Another Location

Airport or City:

Trip Planner

Search our weather history database for the weather conditions in past years. The results will help you decide how hot, cold, wet, or windy it might be!

Date:

Astronomy

Oct. 01, 2012 Rise Set
Actual Time 7:27 AM CDT 7:13 PM CDT
Civil Twilight 7:01 AM CDT 7:39 PM CDT
Nautical Twilight 6:30 AM CDT 8:10 PM CDT
Astronomical Twilight 5:59 AM CDT 8:41 PM CDT
Moon 7:54 PM CDT (10/1) 8:56 AM CDT (10/1)
Length of Visible Light 12h 38m
Length of Day
11h 46m
Full, 98% of the Moon is Illuminated
Oct 1
Full
Oct 8
Last Quarter
Oct 15
New
Oct 21
First Quarter
Oct 29
Full

Hourly Weather History & Observations

Time (CDT) Temp. Windchill Dew Point Humidity Pressure Visibility Wind Dir Wind Speed Gust Speed Precip Events Conditions
12:52 AM 48.9 °F - 45.0 °F 86% 29.90 in 10.0 mi Calm Calm - N/A   Clear
1:52 AM 48.0 °F - 44.1 °F 86% 29.91 in 10.0 mi Calm Calm - N/A   Clear
2:52 AM 48.9 °F - 45.0 °F 86% 29.91 in 10.0 mi NW 5.8 mph - N/A   Clear
3:52 AM 50.0 °F - 43.0 °F 77% 29.89 in 10.0 mi WNW 6.9 mph - N/A   Clear
4:52 AM 48.0 °F - 42.1 °F 80% 29.90 in 10.0 mi NW 5.8 mph - N/A   Clear
5:52 AM 46.0 °F 44.8 °F 41.0 °F 83% 29.91 in 10.0 mi WNW 3.5 mph - N/A   Clear
6:52 AM 48.0 °F - 42.1 °F 80% 29.91 in 10.0 mi WNW 6.9 mph - N/A   Clear
7:52 AM 44.1 °F 40.1 °F 39.9 °F 85% 29.92 in 10.0 mi WNW 6.9 mph - N/A   Clear
8:52 AM 54.0 °F - 44.1 °F 69% 29.93 in 10.0 mi NW 8.1 mph - N/A   Clear
9:52 AM 68.0 °F - 44.1 °F 42% 29.96 in 10.0 mi North 19.6 mph 25.3 mph N/A   Mostly Cloudy
10:52 AM 73.9 °F - 48.9 °F 41% 29.93 in 10.0 mi NNE 13.8 mph 26.5 mph N/A   Partly Cloudy
11:52 AM 68.0 °F - 50.0 °F 52% 29.96 in 10.0 mi North 19.6 mph 29.9 mph N/A   Mostly Cloudy
12:52 PM 68.0 °F - 52.0 °F 56% 29.96 in 10.0 mi North 20.7 mph 32.2 mph 0.00 in   Mostly Cloudy
1:52 PM 66.0 °F - 55.0 °F 68% 29.96 in 10.0 mi North 20.7 mph 26.5 mph 0.00 in   Overcast
2:52 PM 69.1 °F - 54.0 °F 58% 29.94 in 10.0 mi North 23.0 mph 32.2 mph N/A   Scattered Clouds
3:52 PM 70.0 °F - 52.0 °F 53% 29.94 in 9.0 mi North 20.7 mph 34.5 mph N/A   Scattered Clouds
5:52 PM 64.0 °F - 50.0 °F 60% 29.97 in 10.0 mi North 15.0 mph 23.0 mph N/A   Scattered Clouds
6:52 PM 62.1 °F - 48.0 °F 60% 29.97 in 10.0 mi North 11.5 mph 20.7 mph 0.00 in   Scattered Clouds
7:52 PM 61.0 °F - 48.0 °F 62% 29.98 in 10.0 mi North 16.1 mph 20.7 mph N/A   Scattered Clouds
8:52 PM 61.0 °F - 46.0 °F 58% 29.99 in 10.0 mi North 10.4 mph 21.9 mph N/A   Partly Cloudy
10:52 PM 59.0 °F - 46.0 °F 62% 29.99 in 10.0 mi North 8.1 mph - N/A   Mostly Cloudy
11:52 PM 59.0 °F - 46.0 °F 62% 29.99 in 10.0 mi North 11.5 mph - N/A   Clear